Date String (YYYY-MM-DD hh:mm:ss) UTC,Instrument flags,Ambient pressure (hPa),Sample flow (lpm),Bypass flow (lpm),Sample temperature (°C),Ambient temperature (°C),ASC tube jacket temperature (°C),LED temperature (°C),Box temperature (°C),Sample RH (%),Span deviation,Mass concentration (μg/m³),Mass concentration (μg/m³),Mass concentration (μg/m³)
DateTimeUTC,F1_M11,P_M11,Q1_M11,Q2_M11,T1_M11,T2_M11,T3_M11,T4_M11,T5_M11,U1_M11,ZSPAN_M11,X0_M11,X2_M11,X1_M11
2022-02-19 21:00:00,,0822.4,4.99,0.00,26.1,25.5,00.0,35.0,28.0,12.2,0000.0,0012.88,0008.23,0007.67
2022-02-19 21:01:00,,0822.3,5.01,0.00,26.2,25.5,00.0,35.0,28.0,12.1,0000.0,0012.84,0008.19,0007.63
2022-02-19 21:02:00,,0822.3,4.99,0.00,26.2,25.5,00.0,35.0,28.1,12.3,0000.0,0012.88,0008.23,0007.65
2022-02-19 21:03:00,,0822.3,4.99,0.00,26.2,25.5,00.0,35.0,28.1,11.4,0000.0,0012.73,0008.16,0007.62
2022-02-19 21:04:00,,0822.4,5.00,0.00,26.2,25.5,00.0,35.1,28.1,09.8,0000.0,0012.25,0007.99,0007.45
2022-02-19 21:05:00,,0822.5,5.02,0.00,26.2,25.5,00.0,35.1,28.1,09.0,0000.0,0011.26,0007.68,0007.18
2022-02-19 21:06:00,,0822.5,5.00,0.00,26.2,25.5,00.0,35.1,28.1,10.0,0000.0,0010.91,0007.39,0006.91
2022-02-19 21:07:00,,0822.3,4.99,0.00,26.2,25.6,00.0,35.1,28.1,10.1,0000.0,0010.58,0007.14,0006.70
2022-02-19 21:08:00,,0822.2,5.01,0.00,26.2,25.6,00.0,35.1,28.1,07.7,0000.0,0009.90,0006.62,0006.22
2022-02-19 21:09:00,,0822.1,5.00,0.00,26.3,25.6,00.0,35.1,28.1,07.8,0000.0,0008.77,0005.99,0005.65
2022-02-19 21:10:00,,0822.0,5.00,0.00,26.3,25.6,00.0,35.1,28.2,08.0,0000.0,0007.76,0005.38,0005.09
2022-02-19 21:11:00,,0822.1,5.00,0.00,26.3,25.7,00.0,35.1,28.2,07.7,0000.0,0007.01,0004.79,0004.53
2022-02-19 21:12:00,,0821.9,5.00,0.00,26.3,25.7,00.0,35.2,28.2,07.7,0000.0,0005.84,0004.19,0003.96
2022-02-19 21:13:00,,0822.0,5.00,0.00,26.4,25.7,00.0,35.2,28.2,07.8,0000.0,0004.47,0003.54,0003.37
2022-02-19 21:14:00,,0821.8,5.01,0.00,26.4,25.7,00.0,35.2,28.2,07.8,0000.0,0003.45,0002.85,0002.60
2022-02-19 21:15:00,,0821.8,5.01,0.00,26.4,25.7,00.0,35.2,28.2,07.9,0000.0,0002.74,0002.15,0001.90
2022-02-19 21:16:00,,0821.8,5.00,0.00,26.4,25.7,00.0,35.2,28.2,07.7,0000.0,0002.18,0001.65,0001.43
2022-02-19 21:17:00,,0821.9,4.99,0.00,26.4,25.7,00.0,35.3,28.2,07.1,0000.0,0001.77,0001.19,0001.00
2022-02-19 21:18:00,,0821.8,5.00,0.00,26.4,25.7,00.0,35.3,28.2,07.3,0000.0,0001.21,0000.64,0000.49
2022-02-19 21:19:00,,0821.8,5.00,0.00,26.4,25.7,00.0,35.3,28.2,06.3,0000.0,0001.04,0000.45,0000.30
2022-02-19 21:20:00,,0821.8,5.00,0.00,26.4,25.7,00.0,35.3,28.2,07.0,0000.0,0001.08,0000.45,0000.29
2022-02-19 21:21:00,,0821.8,5.01,0.00,26.4,25.7,00.0,35.3,28.2,07.9,0000.0,0001.06,0000.43,0000.29
2022-02-19 21:22:00,,0821.8,5.00,0.00,26.4,25.7,00.0,35.3,28.2,07.3,0000.0,0001.07,0000.44,0000.29
2022-02-19 21:23:00,,0821.8,5.00,0.00,26.4,25.7,00.0,35.3,28.2,07.1,0000.0,0002.05,0000.46,0000.29
2022-02-19 21:24:00,,0821.8,5.00,0.00,26.4,25.7,00.0,35.3,28.2,07.3,0000.0,0003.10,0000.49,0000.29
2022-02-19 21:25:00,,0821.8,5.01,0.00,26.4,25.7,00.0,35.3,28.2,07.5,0000.0,0003.18,0000.51,0000.29
2022-02-19 21:26:00,,0821.7,5.00,0.00,26.4,25.6,00.0,35.3,28.2,07.4,0000.0,0004.05,0000.50,0000.30
2022-02-19 21:27:00,,0821.7,4.99,0.00,26.4,25.6,00.0,35.3,28.3,07.7,0000.0,0004.44,0000.49,0000.30
2022-02-19 21:28:00,,0821.7,5.00,0.00,26.4,25.6,00.0,35.3,28.3,07.1,0000.0,0004.33,0000.48,0000.30
2022-02-19 21:29:00,,0821.9,5.01,0.00,26.4,25.6,00.0,35.4,28.3,07.6,0000.0,0004.31,0000.49,0000.31
2022-02-19 21:30:00,,0822.0,5.00,0.00,26.4,25.5,00.0,35.3,28.2,08.1,0000.0,0004.51,0000.65,0000.44
2022-02-19 21:31:00,,0821.9,4.99,0.00,26.4,25.5,00.0,35.3,28.1,07.5,0000.0,0004.57,0000.72,0000.50
2022-02-19 21:32:00,,0821.8,4.99,0.00,26.4,25.5,00.0,35.3,28.1,07.6,0000.0,0004.62,0000.73,0000.50
2022-02-19 21:33:00,,0821.8,5.02,0.00,26.4,25.5,00.0,35.3,28.2,07.4,0000.0,0004.61,0000.73,0000.50
2022-02-19 21:34:00,,0821.6,4.99,0.00,26.4,25.5,00.0,35.3,28.2,07.7,0000.0,0003.94,0000.75,0000.50
2022-02-19 21:35:00,,0821.7,4.99,0.00,26.4,25.5,00.0,35.3,28.2,06.6,0000.0,0002.63,0000.73,0000.50
2022-02-19 21:36:00,,0821.6,5.00,0.00,26.4,25.5,00.0,35.3,28.2,06.9,0000.0,0002.66,0000.74,0000.49
2022-02-19 21:37:00,,0821.5,5.01,0.00,26.4,25.4,00.0,35.3,28.2,06.7,0000.0,0001.81,0000.72,0000.49
2022-02-19 21:38:00,,0821.5,5.00,0.00,26.3,25.4,00.0,35.3,28.2,07.2,0000.0,0001.24,0000.72,0000.49
2022-02-19 21:39:00,,0821.6,4.99,0.00,26.3,25.4,00.0,35.3,28.1,06.9,0000.0,0001.33,0000.75,0000.49
2022-02-19 21:40:00,,0821.6,4.99,0.00,26.3,25.4,00.0,35.3,28.2,07.1,0000.0,0001.36,0000.76,0000.50
2022-02-19 21:41:00,,0821.4,5.02,0.00,26.3,25.4,00.0,35.3,28.1,07.6,0000.0,0001.52,0000.69,0000.42
2022-02-19 21:42:00,,0821.4,5.00,0.00,26.3,25.4,00.0,35.3,28.1,06.7,0000.0,0001.52,0000.55,0000.32
2022-02-19 21:43:00,,0821.3,4.99,0.00,26.3,25.4,00.0,35.3,28.1,07.5,0000.0,0001.63,0000.55,0000.32
2022-02-19 21:44:00,,0821.3,5.00,0.00,26.3,25.3,00.0,35.3,28.1,07.7,0000.0,0001.78,0000.57,0000.33
2022-02-19 21:45:00,,0821.3,5.02,0.00,26.3,25.3,00.0,35.2,28.1,07.4,0000.0,0001.81,0000.56,0000.33
2022-02-19 21:46:00,,0821.3,5.00,0.00,26.3,25.3,00.0,35.2,28.1,07.6,0000.0,0001.82,0000.57,0000.34
2022-02-19 21:47:00,,0821.3,4.99,0.00,26.3,25.3,00.0,35.2,28.1,07.8,0000.0,0001.78,0000.57,0000.35
2022-02-19 21:48:00,,0821.3,5.01,0.00,26.2,25.2,00.0,35.2,28.0,07.8,0000.0,0001.96,0000.61,0000.35
2022-02-19 21:49:00,,0821.3,5.00,0.00,26.2,25.2,00.0,35.2,28.0,08.0,0000.0,0001.93,0000.60,0000.35
2022-02-19 21:50:00,,0821.3,4.99,0.00,26.2,25.2,00.0,35.2,28.1,07.7,0000.0,0001.83,0000.56,0000.36
2022-02-19 21:51:00,,0821.4,5.00,0.00,26.2,25.2,00.0,35.2,28.1,07.8,0000.0,0001.79,0000.55,0000.35
2022-02-19 21:52:00,,0821.3,5.00,0.00,26.2,25.2,00.0,35.2,28.0,08.3,0000.0,0001.72,0000.53,0000.35
2022-02-19 21:53:00,,0821.3,5.00,0.00,26.2,25.2,00.0,35.2,28.0,07.7,0000.0,0001.63,0000.55,0000.36
2022-02-19 21:54:00,,0821.4,4.98,0.00,26.2,25.2,00.0,35.2,28.0,07.7,0000.0,0001.59,0000.56,0000.36
2022-02-19 21:55:00,,0821.4,4.99,0.00,26.2,25.2,00.0,35.2,28.0,08.0,0000.0,0001.40,0000.55,0000.36
2022-02-19 21:56:00,,0821.2,5.02,0.00,26.2,25.2,00.0,35.2,27.9,07.9,0000.0,0002.05,0000.52,0000.36
2022-02-19 21:57:00,,0821.3,4.99,0.00,26.1,25.2,00.0,35.2,27.9,07.3,0000.0,0003.08,0000.53,0000.36
2022-02-19 21:58:00,,0821.2,5.01,0.00,26.1,25.1,00.0,35.1,27.9,07.3,0000.0,0003.56,0000.52,0000.35
2022-02-19 21:59:00,,0821.2,5.00,0.00,26.1,25.1,00.0,35.1,27.9,07.3,0000.0,0004.34,0000.48,0000.35
